W5HRH Weather Reports


Display with metric or nautical units.
time (UTC)temp
F
wind
direction
speed
MPH
gust
MPH
rain 1hr
in
rain 24hr
in
rain mn
in
humidity
%
barometer
mb
20260503222054 78 182 0.0 7.0 0.00 0.00 0.00 38 1020.3
20260503221559 78 184 0.0 7.0 0.00 0.00 0.00 40 1020.4
20260503221051 79 194 0.0 8.0 0.00 0.00 0.00 38 1020.4
20260503220552 79 169 1.0 7.0 0.00 0.00 0.00 39 1020.3
20260503215552 79 89 0.0 4.0 0.00 0.00 0.00 38 1020.3
20260503215051 79 151 0.0 4.0 0.00 0.00 0.00 39 1020.2
20260503214551 79 88 0.0 5.0 0.00 0.00 0.00 40 1020.2
20260503214054 79 195 1.0 5.0 0.00 0.00 0.00 39 1020.2
20260503213552 79 103 0.0 0.0 0.00 0.00 0.00 37 1020.5
20260503213049 79 129 0.0 2.0 0.00 0.00 0.00 38 1020.7
20260503212551 80 154 0.0 4.0 0.00 0.00 0.00 37 1020.7
20260503212048 80 116 0.0 4.0 0.00 0.00 0.00 37 1020.7
20260503211548 80 148 0.0 6.0 0.00 0.00 0.00 37 1020.8
20260503211047 80 169 0.0 6.0 0.00 0.00 0.00 39 1020.8
20260503210547 80 163 0.0 6.0 0.00 0.00 0.00 39 1020.7
20260503210054 80 162 0.0 0.0 0.00 0.00 0.00 37 1020.7
20260503205547 80 161 0.0 0.0 0.00 0.00 0.00 38 1020.8
20260503205046 80 167 0.0 10.0 0.00 0.00 0.00 39 1021.1
20260503204558 80 113 0.0 10.0 0.00 0.00 0.00 38 1021.3
20260503204046 80 162 0.0 4.0 0.00 0.00 0.00 39 1021.1
20260503203544 80 180 0.0 6.0 0.00 0.00 0.00 36 1021.4
20260503203043 80 125 0.0 6.0 0.00 0.00 0.00 37 1021.5
20260503202543 81 186 0.0 5.0 0.00 0.00 0.00 40 1021.5
20260503202043 80 178 0.0 5.0 0.00 0.00 0.00 37 1021.5
20260503201542 80 88 0.0 5.0 0.00 0.00 0.00 37 1021.6
20260503201041 80 128 0.0 4.0 0.00 0.00 0.00 36 1021.6
20260503200540 80 82 0.0 4.0 0.00 0.00 0.00 37 1021.7
20260503200045 80 295 0.0 3.0 0.00 0.00 0.00 37 1021.8
20260503195539 80 179 0.0 5.0 0.00 0.00 0.00 38 1021.9
20260503195039 80 139 0.0 5.0 0.00 0.00 0.00 37 1022.0
20260503194538 80 167 0.0 5.0 0.00 0.00 0.00 37 1022.1
20260503194037 80 123 0.0 7.0 0.00 0.00 0.00 38 1022.2
20260503193536 80 40 1.0 8.0 0.00 0.00 0.00 39 1022.2
20260503193035 80 80 2.0 8.0 0.00 0.00 0.00 38 1022.3
20260503192534 79 186 0.0 7.0 0.00 0.00 0.00 39 1022.5
20260503192033 80 78 0.0 7.0 0.00 0.00 0.00 37 1022.5
20260503191532 80 186 0.0 8.0 0.00 0.00 0.00 39 1022.7
20260503191032 80 98 0.0 8.0 0.00 0.00 0.00 38 1022.8
20260503190531 80 141 0.0 4.0 0.00 0.00 0.00 38 1022.8
20260503190042 80 115 0.0 5.0 0.00 0.00 0.00 38 1022.8
20260503185530 80 146 0.0 5.0 0.00 0.00 0.00 41 1022.9
20260503185029 80 84 1.0 4.0 0.00 0.00 0.00 39 1022.8
20260503184529 79 81 0.0 4.0 0.00 0.00 0.00 38 1023.1
20260503184028 79 79 0.0 5.0 0.00 0.00 0.00 40 1023.1
20260503183527 79 54 0.0 7.0 0.00 0.00 0.00 41 1023.2
20260503183027 79 160 1.0 10.0 0.00 0.00 0.00 39 1023.0
20260503182526 79 144 1.0 10.0 0.00 0.00 0.00 40 1023.2
20260503182026 79 189 0.0 4.0 0.00 0.00 0.00 41 1023.2
20260503181526 78 150 0.0 5.0 0.00 0.00 0.00 40 1023.4
20260503181025 79 114 0.0 5.0 0.00 0.00 0.00 39 1023.4
20260503180529 79 39 0.0 5.0 0.00 0.00 0.00 40 1023.5
20260503180024 79 98 0.0 7.0 0.00 0.00 0.00 41 1023.4
20260503175524 79 144 0.0 5.0 0.00 0.00 0.00 40 1023.6
20260503175024 79 165 0.0 0.0 0.00 0.00 0.00 39 1023.6
20260503174522 79 183 0.0 0.0 0.00 0.00 0.00 42 1023.8
20260503174022 78 144 0.0 0.0 0.00 0.00 0.00 42 1024.1
20260503173519 78 180 0.0 5.0 0.00 0.00 0.00 44 1024.3
20260503173019 77 71 0.0 5.0 0.00 0.00 0.00 42 1024.4
20260503172518 77 196 0.0 4.0 0.00 0.00 0.00 43 1024.5
20260503172018 77 202 0.0 6.0 0.00 0.00 0.00 41 1024.5
20260503171519 77 194 2.0 6.0 0.00 0.00 0.00 42 1024.7
20260503171019 77 146 1.0 4.0 0.00 0.00 0.00 40 1024.7
20260503170519 77 59 0.0 5.0 0.00 0.00 0.00 41 1024.7
20260503151001 74 170 0.0 3.0 0.00 0.00 0.00 54 1024.6
20260503150600 74 177 0.0 3.0 0.00 0.00 0.00 54 1024.6
20260503131034 61 126 0.0 0.0 0.00 0.00 0.00 90 1024.1
20260503130529 60 126 0.0 0.0 0.00 0.00 0.00 91 1024.1
20260503110517 54 127 0.0 0.0 0.00 0.00 0.00 91 1023.3
20260503090507 56 127 0.0 0.0 0.00 0.00 0.00 90 1022.5
20260503081501 57 127 0.0 0.0 0.00 0.00 0.00 87 1022.6
20260503081100 57 127 0.0 0.0 0.00 0.00 0.00 87 1022.7
20260503080603 57 127 0.0 0.0 0.00 0.00 0.00 87 1022.8
20260503072556 57 127 0.0 0.0 0.00 0.00 0.00 86 1022.7
20260503072056 58 127 0.0 0.0 0.00 0.00 0.00 86 1022.7
20260503071557 58 127 0.0 0.0 0.00 0.00 0.00 85 1022.7
20260503071054 58 127 0.0 0.0 0.00 0.00 0.00 85 1022.8
20260503070554 58 127 0.0 0.0 0.00 0.00 0.00 85 1022.8
20260503055045 59 127 0.0 0.0 0.00 0.00 0.00 81 1022.6
20260503054545 59 127 0.0 0.0 0.00 0.00 0.00 81 1022.7
20260503054044 59 127 0.0 0.0 0.00 0.00 0.00 81 1022.6
20260503053544 60 127 0.0 0.0 0.00 0.00 0.00 81 1022.4
20260503053043 60 127 0.0 0.0 0.00 0.00 0.00 81 1022.4
20260503052543 60 127 0.0 0.0 0.00 0.00 0.00 80 1022.3
20260503052042 60 127 0.0 0.0 0.00 0.00 0.00 80 1022.4
20260503051541 60 127 0.0 0.0 0.00 0.00 0.00 80 1022.4
20260503051040 60 127 0.0 0.0 0.00 0.00 0.00 79 1022.4
20260503050538 60 127 0.0 0.0 0.00 0.00 0.00 78 1022.4
20260503050037 60 127 0.0 0.0 0.00 0.00 0.00 78 1022.4
20260503045538 61 127 0.0 0.0 0.00 0.00 0.00 79 1022.3
20260503045038 61 127 0.0 0.0 0.00 0.00 0.00 78 1022.3
20260503044542 61 127 0.0 0.0 0.00 0.00 0.00 77 1022.4
20260503044038 61 127 0.0 0.0 0.00 0.00 0.00 77 1022.3
20260503043537 61 127 0.0 0.0 0.00 0.00 0.00 78 1022.2
20260503043037 61 127 0.0 0.0 0.00 0.00 0.00 77 1022.2
20260503042537 61 127 0.0 0.0 0.00 0.00 0.00 76 1022.2
20260503042037 62 127 0.0 0.0 0.00 0.00 0.00 77 1022.1
20260503041540 62 127 0.0 0.0 0.00 0.00 0.00 76 1022.2
20260503041039 62 127 0.0 0.0 0.00 0.00 0.00 75 1022.3
20260503040535 62 127 0.0 0.0 0.00 0.00 0.00 75 1022.3
20260503040036 62 127 0.0 0.0 0.00 0.00 0.00 75 1022.3
20260503035536 62 127 0.0 0.0 0.00 0.01 0.00 74 1022.3
20260503035040 62 127 0.0 0.0 0.00 0.01 0.00 73 1022.3
20260503034535 63 127 0.0 0.0 0.00 0.01 0.00 73 1022.1
20260503034035 63 127 0.0 0.0 0.00 0.01 0.00 72 1022.1
20260503033536 63 127 0.0 0.0 0.00 0.01 0.00 71 1022.0
20260503033034 63 127 0.0 0.0 0.00 0.01 0.00 71 1021.8
20260503032536 63 127 0.0 0.0 0.00 0.01 0.00 71 1022.0
20260503032035 64 127 0.0 0.0 0.00 0.01 0.00 70 1021.9
20260503031541 64 127 0.0 0.0 0.00 0.01 0.00 69 1021.8
20260503031035 64 127 0.0 0.0 0.00 0.01 0.00 69 1021.7
20260503030533 64 127 0.0 0.0 0.00 0.01 0.00 68 1021.7
20260503030034 64 127 0.0 0.0 0.00 0.01 0.00 68 1021.6
20260503025534 65 127 0.0 0.0 0.00 0.03 0.00 67 1021.7
20260503025033 65 127 0.0 0.0 0.00 0.03 0.00 67 1021.8
20260503024533 65 127 0.0 0.0 0.00 0.03 0.00 66 1021.7
20260503024033 65 127 0.0 0.0 0.00 0.03 0.00 67 1021.7
20260503023534 66 127 0.0 0.0 0.00 0.03 0.00 65 1021.7
20260503023037 66 127 0.0 0.0 0.00 0.03 0.00 64 1021.6
20260503022533 66 127 0.0 0.0 0.00 0.03 0.00 63 1021.6
20260503022032 67 127 0.0 0.0 0.00 0.03 0.00 63 1021.5
20260503021535 67 127 0.0 0.0 0.00 0.03 0.00 62 1021.5
20260503021032 68 127 0.0 0.0 0.00 0.03 0.00 61 1021.5
20260503020532 68 127 0.0 0.0 0.00 0.03 0.00 61 1021.5
20260503020032 68 127 0.0 0.0 0.00 0.03 0.00 60 1021.5
20260503015532 69 127 0.0 0.0 0.00 0.11 0.00 59 1021.5
20260503015031 69 127 0.0 0.0 0.00 0.11 0.00 58 1021.3
20260503014535 70 127 0.0 0.0 0.00 0.11 0.00 56 1021.2
20260503014031 70 127 0.0 0.0 0.00 0.11 0.00 56 1021.1
20260503013533 70 127 0.0 0.0 0.00 0.11 0.00 55 1021.0
20260503013036 71 127 0.0 0.0 0.00 0.11 0.00 54 1021.0
20260503012632 71 127 0.0 2.0 0.00 0.11 0.00 54 1020.9
20260503012030 71 78 0.0 3.0 0.00 0.11 0.00 53 1020.9
20260503011531 72 77 0.0 4.0 0.00 0.11 0.00 53 1020.8
20260503011030 72 60 1.0 4.0 0.00 0.11 0.00 52 1020.7
20260503010529 72 30 0.0 3.0 0.00 0.11 0.00 52 1020.8
20260503010029 72 22 1.0 3.0 0.00 0.11 0.00 51 1020.7
20260503005530 72 57 0.0 4.0 0.00 0.19 0.00 52 1020.6
20260503005031 73 55 1.0 4.0 0.00 0.19 0.00 51 1020.5
20260503004528 73 62 0.0 5.0 0.00 0.19 0.00 51 1020.5
20260503004028 73 63 2.0 5.0 0.00 0.19 0.00 50 1020.4
20260503003530 73 69 0.0 2.0 0.00 0.19 0.00 51 1020.3
20260503003029 73 69 0.0 4.0 0.00 0.19 0.00 50 1020.3
20260503002531 74 69 0.0 5.0 0.00 0.19 0.00 50 1020.2
20260503002028 74 52 1.0 6.0 0.00 0.19 0.00 50 1020.1
20260503001528 74 67 2.0 6.0 0.00 0.19 0.00 49 1020.0
20260503001028 74 66 2.0 6.0 0.00 0.19 0.00 49 1020.0
20260503000530 74 84 1.0 6.0 0.00 0.19 0.00 48 1020.1
20260503000033 74 24 2.0 8.0 0.00 0.19 0.00 48 1020.1
20260502235526 74 91 4.0 8.0 0.00 0.34 0.00 48 1020.0
20260502235026 74 15 4.0 8.0 0.00 0.34 0.00 48 1020.1
20260502234526 74 336 3.0 10.0 0.00 0.34 0.00 48 1020.0
20260502234026 74 355 3.0 10.0 0.00 0.34 0.00 47 1020.0
20260502233526 75 43 4.0 12.0 0.00 0.34 0.00 47 1020.0
20260502233026 75 61 4.0 12.0 0.00 0.34 0.00 47 1020.0
20260502232529 75 76 3.0 9.0 0.00 0.34 0.00 47 1019.9
20260502232024 75 11 2.0 8.0 0.00 0.34 0.00 48 1020.0
20260502231524 75 36 2.0 7.0 0.00 0.34 0.00 47 1020.0
20260502231024 75 69 1.0 10.0 0.00 0.34 0.00 47 1019.9
20260502230524 75 45 4.0 10.0 0.00 0.34 0.00 45 1019.9
20260502230023 75 74 4.0 11.0 0.00 0.36 0.00 45 1019.9
20260502225523 75 360 3.0 11.0 0.00 0.36 0.00 46 1019.9
20260502225024 75 60 3.0 11.0 0.00 0.36 0.00 45 1019.8
20260502224522 75 18 5.0 11.0 0.00 0.36 0.00 44 1019.9
20260502224026 75 43 4.0 13.0 0.00 0.36 0.00 45 1019.9
20260502223522 75 45 5.0 13.0 0.00 0.36 0.00 46 1019.8
20260502223022 76 27 4.0 10.0 0.00 0.36 0.00 44 1019.8
20260502222521 76 31 4.0 11.0 0.00 0.36 0.00 45 1019.9